TimeCST,TemperatureF,Dew PointF,Humidity,Sea Level PressureIn,VisibilityMPH,Wind Direction,Wind SpeedMPH,Gust SpeedMPH,PrecipitationIn,Events,Conditions,WindDirDegrees,DateUTC
12:52 AM,-5.1,-11.0,76,30.49,10.0,WSW,3.5,-,N/A,,Clear,250,2013-02-01 06:52:00
1:52 AM,-5.1,-11.0,76,30.47,10.0,WSW,4.6,-,N/A,,Clear,250,2013-02-01 07:52:00
2:52 AM,-4.0,-9.4,78,30.37,10.0,Calm,Calm,-,N/A,,Clear,0,2013-02-01 08:52:00
3:52 AM,-6.0,-11.0,79,30.44,10.0,East,3.5,-,N/A,,Clear,100,2013-02-01 09:52:00
4:52 AM,-4.0,-9.9,76,30.42,10.0,SE,4.6,-,N/A,,Clear,130,2013-02-01 10:52:00
5:52 AM,-2.9,-8.0,79,30.42,10.0,South,4.6,-,N/A,,Mostly Cloudy,180,2013-02-01 11:52:00
6:52 AM,1.0,-6.0,72,30.41,10.0,SSE,4.6,-,N/A,,Overcast,160,2013-02-01 12:52:00
7:52 AM,1.9,-5.1,72,30.39,10.0,SSE,6.9,-,N/A,,Overcast,160,2013-02-01 13:52:00
8:52 AM,5.0,-2.9,70,30.36,10.0,SE,9.2,-,N/A,,Overcast,140,2013-02-01 14:52:00
9:52 AM,7.0,-2.9,64,30.33,10.0,SSE,12.7,-,N/A,,Overcast,150,2013-02-01 15:52:00
10:52 AM,10.0,-0.0,64,30.28,10.0,SSE,17.3,21.9,N/A,,Overcast,160,2013-02-01 16:52:00
11:52 AM,12.9,1.9,62,30.26,10.0,SSE,11.5,-,N/A,,Mostly Cloudy,150,2013-02-01 17:52:00
12:52 PM,17.1,5.0,59,30.21,10.0,SSE,9.2,-,N/A,,Overcast,150,2013-02-01 18:52:00
1:52 PM,21.0,9.0,60,30.16,10.0,SSE,12.7,-,N/A,,Overcast,160,2013-02-01 19:52:00
2:52 PM,24.1,12.0,60,30.13,10.0,South,18.4,-,N/A,,Overcast,190,2013-02-01 20:52:00
3:52 PM,25.0,14.0,63,30.11,10.0,South,16.1,-,N/A,,Mostly Cloudy,190,2013-02-01 21:52:00
4:52 PM,24.1,15.1,69,30.09,10.0,SSE,11.5,-,N/A,,Scattered Clouds,160,2013-02-01 22:52:00
5:52 PM,23.0,16.0,74,30.05,10.0,SSE,8.1,-,N/A,,Partly Cloudy,150,2013-02-01 23:52:00
6:52 PM,27.0,21.0,78,30.04,10.0,South,11.5,-,N/A,,Clear,190,2013-02-02 00:52:00
7:52 PM,28.0,21.9,78,30.06,10.0,SW,5.8,-,N/A,,Mostly Cloudy,220,2013-02-02 01:52:00
8:52 PM,28.9,23.0,78,30.06,10.0,WSW,10.4,-,N/A,,Partly Cloudy,250,2013-02-02 02:52:00
9:52 PM,28.9,23.0,78,30.08,10.0,NW,10.4,-,N/A,,Mostly Cloudy,310,2013-02-02 03:52:00
10:52 PM,28.0,19.9,72,30.09,10.0,NW,15.0,-,N/A,,Overcast,310,2013-02-02 04:52:00
11:52 PM,26.1,18.0,71,30.11,10.0,NW,12.7,20.7,N/A,,Mostly Cloudy,320,2013-02-02 05:52:00